Wind_Gust
17 16 13 10 7 9 8 13 13 14 14 5 4 4 6 3 4 8 9 10 7 5 5 4 10 12 10 10 10 8 6 10 12 17 12 12 12 11 15 18 16 16 18 15 12 13 14 17 19 19 19 18 19 19 19 19 18 18 18 18 17 17 17 17 17 16 16 16 16 15 15 15 14 13 13 13 13 13 12 13 13 13 16 16 16 17 17 17 16 14 14 15 16 17 17 17 16
17 16 13 6 7 6 7 6 15 11 13 8 6 4 5 4 7 3 10 6 8 7 6 9 9 12 13 14 13 6 8 12 9 8 12 13 16 14 16 18 18 20 15 13 12 13 12 16 20 19 19 19 19 19 19 19 18 18 18 17 17 17 17 17 17 16 16 16 16 16 15 14 14 14 13 12 12 12 12 12 12 13 15 16 16 16 16 16 16 14 14 16 16 17 16 16 15
17 16 16 10 7 12 6 13 12 4 8 12 8 9 5 9 6 5 9 11 7 7 5 8 7 7 6 7 6 9 3 6 12 9 14 16 23 13 16 16 15 16 15 13 14 13 14 15 21 20 19 19 19 19 19 18 19 18 18 18 18 17 16 17 17 16 16 16 16 16 15 15 15 13 13 12 12 12 11 11 11 13 15 17 16 16 15 15 15 14 15 15 15 16 15 14 13
12 6 7 8 11 12 9 13 6 7 8 9 17 10 8 8 9 3 9 5 8 6 6 6 7 6 4 7 4 8 6 5 7 10 23 20 10 19 17 17 16 15 13 14 14 14 12 18 22 21 20 20 18 19 19 19 18 19 18 18 17 18 17 16 16 16 16 16 16 16 15 15 14 13 12 12 11 11 10 10 12 14 17 16 16 15 15 15 15 15 15 15 15 14 14 13 12
11 8 8 11 8 9 8 4 6 4 5 7 10 11 11 6 8 5 6 4 7 6 5 8 9 9 5 7 4 7 6 9 10 6 19 11 15 16 16 16 16 16 15 14 14 14 13 22 19 19 20 20 19 19 19 19 19 18 18 18 18 17 17 16 16 16 16 16 15 15 15 14 14 13 12 12 11 12 12 12 12 14 14 14 14 13 13 13 13 13 14 14 14 13 12 11 10
9 8 6 6 7 7 13 4 5 4 12 7 6 12 8 12 7 2 4 6 11 10 7 5 9 7 8 7 6 7 7 5 12 8 16 13 19 17 16 15 16 16 14 13 13 11 14 23 21 18 19 20 19 19 18 19 19 18 18 18 18 18 17 17 16 16 15 15 15 15 14 14 14 13 12 11 11 11 10 11 11 11 13 13 13 13 13 14 12 13 13 13 13 11 11 10 9
12 11 14 11 8 13 8 6 5 7 14 10 9 8 10 13 8 4 5 6 9 10 4 6 8 8 12 7 9 12 10 11 13 14 8 19 19 18 16 15 17 17 15 13 11 12 15 19 18 19 17 19 19 19 18 18 18 18 17 18 18 18 18 17 16 16 15 14 14 14 13 13 13 12 11 10 10 10 11 10 10 10 11 12 13 13 13 14 13 13 13 13 13 11 10 9 8
4 6 8 7 7 9 3 3 7 10 10 10 7 8 14 15 5 6 6 7 11 12 8 8 11 11 3 4 10 8 14 10 16 19 21 20 19 17 16 17 19 17 16 13 11 13 20 18 18 18 18 18 18 19 18 18 18 18 18 17 18 17 16 17 16 15 14 13 13 13 13 13 12 12 10 9 8 8 8 8 10 9 10 11 11 11 12 13 14 13 13 12 11 10 10 9 8
9 13 4 9 4 8 4 5 9 6 14 9 15 14 16 13 9 5 7 12 5 6 5 13 9 11 8 10 9 6 13 17 19 22 19 19 17 16 16 16 22 20 16 15 14 13 14 19 17 17 18 18 19 18 18 18 17 17 17 17 17 16 16 16 15 14 13 12 12 12 12 12 12 12 11 10 8 9 8 7 7 9 9 10 11 11 11 12 12 13 12 11 10 9 9 8 8
5 6 7 8 10 5 3 9 3 9 10 7 7 17 20 19 18 13 8 10 13 3 5 7 6 10 14 15 8 6 13 20 23 20 16 14 15 14 14 13 18 24 18 16 15 14 13 20 18 15 16 18 17 17 17 16 16 16 17 16 15 15 15 15 14 13 13 12 12 12 13 13 13 13 11 9 8 8 8 7 7 8 8 9 10 10 10 11 11 12 12 12 11 10 9 8 8
8 12 7 8 4 7 8 10 7 9 7 8 13 15 14 14 11 17 11 8 7 7 7 11 13 15 12 9 11 8 13 19 24 21 14 15 15 15 13 11 12 19 22 18 16 14 15 15 21 17 16 14 14 14 14 14 16 15 16 14 14 14 14 14 13 13 12 12 12 12 13 13 13 13 12 10 9 8 8 8 7 7 7 8 8 9 9 10 10 11 11 11 11 10 10 9 9
7 6 5 7 10 14 12 10 6 12 10 7 11 12 5 9 9 15 19 18 8 6 10 10 20 18 16 10 12 14 12 11 15 18 15 15 14 13 14 12 10 9 18 19 15 13 13 14 14 19 18 16 14 16 15 17 17 16 15 15 14 14 13 13 12 12 11 12 11 12 12 12 12 12 12 11 9 9 8 7 7 7 7 8 8 8 8 9 9 10 11 11 11 11 11 11 10
9 6 8 10 12 6 5 3 8 5 7 9 11 12 4 7 10 13 9 4 9 13 5 2 21 5 11 10 17 13 13 11 12 15 16 15 15 13 10 10 9 11 12 14 15 13 11 11 11 12 16 19 16 17 18 17 16 15 15 15 14 14 13 12 11 11 11 11 10 10 11 11 11 11 11 10 10 10 9 8 7 7 7 7 7 8 8 9 9 10 10 11 12 11 11 11 11
14 15 15 14 4 8 10 8 3 4 9 10 7 8 9 9 8 6 4 12 10 5 3 17 14 22 19 20 16 14 15 13 13 12 15 15 13 12 11 9 9 10 11 12 14 14 11 10 11 12 14 13 13 17 18 18 16 15 14 14 13 12 12 12 11 10 10 10 9 9 10 10 10 10 10 11 10 9 9 8 7 7 7 6 7 7 8 9 9 10 10 11 12 12 11 11 11
10 7 11 10 8 6 7 14 10 9 15 7 10 4 8 10 5 10 6 4 8 3 15 9 16 9 21 23 17 21 20 17 16 15 16 14 13 12 12 12 11 11 13 13 15 15 15 13 12 12 11 11 12 10 10 15 17 16 15 14 13 12 11 10 10 9 9 9 9 8 8 9 9 10 10 9 8 9 9 8 8 7 6 6 7 7 8 9 9 10 11 11 12 12 12 11 11
11 12 11 13 11 11 13 9 3 5 21 6 11 3 7 19 9 6 9 8 11 7 5 13 4 9 20 22 26 27 23 19 17 17 18 17 14 12 13 13 12 12 12 12 12 12 13 14 13 14 13 12 11 10 11 10 15 16 15 14 14 12 11 10 9 9 9 9 8 8 7 7 8 8 9 6 9 9 8 5 7 7 6 6 6 7 8 8 9 10 11 11 12 11 12 12 12
5 9 10 11 10 9 10 12 11 20 10 10 10 7 12 20 4 11 9 14 21 8 12 6 6 10 27 23 26 29 23 21 18 19 19 17 16 16 14 13 13 12 12 12 12 13 14 16 15 13 13 13 12 11 10 9 12 15 13 14 13 12 11 10 9 9 8 7 7 6 6 7 6 7 7 5 7 4 5 6 6 6 6 6 6 6 7 8 9 9 10 10 11 11 12 12 12
7 16 16 10 12 15 14 17 19 8 11 6 7 6 4 13 6 11 17 19 21 16 18 17 19 17 22 22 27 27 27 25 22 23 20 19 17 19 17 17 19 21 21 17 13 13 15 16 18 15 14 13 12 11 9 8 9 11 7 6 6 8 9 9 7 3 8 4 6 5 5 4 5 5 5 7 6 3 3 3 5 5 4 3 4 4 5 6 8 8 9 10 11 10 12 9 9
15 14 18 25 15 17 15 16 13 9 10 12 8 2 4 10 10 13 11 5 14 23 14 21 23 22 21 25 24 26 25 24 23 24 24 22 21 23 25 23 22 22 21 21 17 16 15 16 16 18 16 15 13 11 9 7 9 7 6 7 7 8 7 7 4 6 7 6 5 5 5 5 3 4 2 5 5 6 2 4 3 3 4 4 4 5 6 7 7 8 8 9 9 10 8 8 9
12 16 21 18 13 12 13 8 13 13 9 10 9 5 3 5 5 7 9 12 9 23 27 18 25 24 22 25 25 25 24 23 22 25 24 24 23 27 25 27 25 26 22 23 21 15 16 16 21 20 19 16 14 12 9 9 8 7 8 7 7 6 6 7 5 5 6 6 5 4 4 4 3 4 8 9 10 7 5 6 5 6 6 6 6 6 6 6 7 7 7 8 7 7 7 7 8
12 14 18 17 12 14 13 10 11 12 8 10 10 4 10 4 4 6 16 16 7 12 23 36 29 29 27 27 27 24 24 23 22 22 24 25 27 27 30 31 31 26 20 17 15 16 15 15 15 18 17 17 13 12 12 9 8 8 7 7 7 7 6 6 5 5 5 5 4 3 3 3 4 5 5 5 5 5 4 5 5 5 4 6 7 5 5 5 5 7 7 6 6 6 7 7 7
12 18 7 10 7 11 9 15 14 10 7 5 6 6 14 4 6 11 21 14 18 26 22 24 33 34 33 31 28 25 25 25 23 24 28 31 34 27 18 18 15 14 13 18 19 14 15 15 15 16 17 16 13 12 12 13 12 8 8 7 7 6 7 6 5 4 4 3 3 4 4 3 4 4 4 5 5 4 4 5 4 5 6 6 6 6 6 5 6 6 6 7 6 5 6 6 5
21 10 9 9 10 16 8 9 13 12 15 10 10 10 5 4 5 4 7 10 10 12 21 25 36 38 36 34 32 27 26 27 27 29 27 23 16 12 15 16 18 19 16 15 15 13 14 13 13 14 15 14 12 11 11 11 10 9 8 8 8 6 5 5 5 4 5 4 4 4 6 5 5 4 4 5 5 4 4 4 4 4 4 5 6 6 6 5 6 6 6 6 6 6 7 5 5
10 20 2 9 6 14 7 10 9 10 13 17 15 4 3 6 3 3 6 9 10 19 19 20 20 22 27 30 28 33 31 30 30 28 23 21 20 22 23 22 16 10 12 12 13 12 12 13 12 13 13 13 12 12 12 11 9 9 7 9 7 7 6 5 5 5 4 5 5 6 5 6 6 5 5 5 4 4 4 5 4 4 4 5 5 4 5 6 7 7 6 7 7 7 7 7 8
19 21 6 5 7 10 10 9 8 9 11 10 6 6 5 6 8 4 6 7 10 20 21 21 21 21 19 25 26 24 24 23 24 14 8 10 13 13 12 12 12 13 14 12 12 12 11 12 12 13 12 12 12 11 12 9 9 7 5 6 6 7 4 5 3 2 3 3 3 4 4 5 5 5 5 4 5 4 5 5 5 5 6 5 5 4 4 6 6 6 7 7 7 8 8 8 8
16 11 5 5 8 5 13 14 13 8 6 3 6 4 6 15 11 13 8 7 9 18 21 22 21 22 23 23 25 25 25 27 18 14 14 11 11 15 14 13 14 16 14 11 12 10 10 9 12 12 11 12 12 10 10 9 7 7 5 5 4 6 6 5 4 5 5 6 6 6 7 6 5 5 5 5 6 6 6 5 7 7 7 6 5 6 6 6 6 6 7 7 8 7 8 7 7
5 11 12 8 9 7 5 12 18 16 10 5 9 9 10 6 8 11 4 10 15 18 19 18 22 25 22 21 20 20 24 23 19 13 11 11 12 15 15 12 14 13 11 12 11 10 9 9 10 9 8 8 9 9 7 7 6 6 6 5 5 6 6 8 7 7 6 7 6 7 7 6 6 6 7 6 6 6 6 6 7 6 7 7 6 6 6 7 7 8 7 7 8 7 8 7 9
14 6 7 15 14 12 8 5 13 9 16 11 10 7 5 6 4 12 18 15 15 21 20 20 18 21 23 20 20 17 16 12 11 13 19 18 18 16 15 17 15 12 12 12 11 9 9 9 9 7 8 10 9 7 7 7 7 6 5 6 6 6 7 8 7 6 8 7 6 6 6 6 6 7 8 7 7 7 7 6 6 8 7 6 7 6 7 8 8 8 8 7 8 8 9 10 9
3 9 11 5 9 26 18 20 14 8 17 10 11 10 6 7 7 13 18 17 16 16 19 18 18 17 17 17 15 15 16 12 10 13 15 15 13 13 16 11 14 13 8 12 12 10 9 8 9 7 8 7 9 9 9 8 8 8 8 6 7 7 7 7 7 6 8 7 6 6 7 6 7 8 8 7 7 7 6 6 7 7 7 7 7 7 7 7 8 9 10 7 9 10 12 12 10
3 3 9 6 6 15 22 14 15 9 14 16 16 21 10 13 11 15 16 20 16 17 20 20 17 15 14 14 15 12 8 10 13 12 10 11 11 11 12 12 11 12 13 10 8 9 8 7 8 7 8 9 9 9 10 9 8 8 6 6 7 7 6 8 9 8 9 7 6 6 6 6 7 7 8 8 7 7 7 7 8 9 8 7 9 9 10 9 10 11 9 10 11 11 11 10 10
13 7 9 13 8 23 13 23 16 18 16 17 15 23 10 11 14 13 15 19 24 22 20 20 17 15 14 14 13 14 10 10 10 7 5 6 6 6 8 9 11 10 8 8 10 9 10 9 9 8 8 9 10 10 11 10 7 9 8 7 7 6 8 9 10 8 8 6 6 7 6 6 7 8 8 9 9 8 8 8 9 8 8 8 11 9 9 10 11 11 9 10 8 10 8 8 9
8 16 17 15 22 11 8 11 16 31 12 15 14 18 15 16 16 13 15 17 18 18 19 21 17 17 15 14 14 13 12 7 5 4 5 6 6 6 9 9 9 8 9 9 11 10 11 8 9 10 7 9 9 10 9 10 9 7 7 9 8 7 8 9 8 8 8 7 7 7 5 5 7 8 9 9 10 9 8 9 8 7 7 9 10 9 10 11 7 10 9 8 9 9 10 11 9
8 19 13 24 18 12 11 9 15 19 18 5 23 15 13 7 12 12 12 19 18 17 17 19 18 17 17 16 15 13 12 9 6 6 6 7 6 6 8 8 7 7 8 11 12 11 11 10 11 11 10 10 9 9 9 9 9 9 9 9 8 8 9 9 8 6 7 7 7 7 7 9 9 10 10 10 11 9 9 9 9 8 7 10 10 9 11 9 8 9 10 10 8 8 10 10 11
19 17 31 18 24 12 24 9 4 13 16 13 8 16 13 15 23 17 16 17 19 18 18 21 20 18 18 15 14 14 14 13 13 9 8 8 7 8 7 9 9 9 9 10 10 13 12 10 10 10 10 9 10 11 11 11 10 11 10 9 10 11 9 8 7 7 8 7 8 10 9 10 10 10 10 9 10 9 9 9 8 8 7 10 10 10 9 7 9 8 9 9 10 12 12 12 13
40 23 17 12 9 15 17 19 8 15 14 15 8 7 11 8 18 18 18 18 19 19 21 20 18 17 15 15 15 15 14 14 10 8 9 9 9 8 9 11 11 10 10 11 11 12 12 11 11 11 11 11 12 12 13 12 12 11 11 10 11 11 10 9 8 10 8 9 10 9 9 10 11 10 10 9 10 10 10 10 9 7 7 9 10 10 10 9 9 8 9 8 8 11 9 8 7
13 19 14 8 14 13 23 21 7 19 15 12 16 19 14 17 19 18 15 16 18 17 11 10 13 14 13 17 14 15 14 11 8 9 10 10 9 11 10 10 11 11 11 12 12 13 14 13 11 12 11 12 12 11 13 12 10 11 13 11 12 11 11 12 11 10 9 10 10 10 11 11 10 11 11 10 11 10 10 9 9 8 8 9 12 12 10 10 9 8 9 7 7 8 12 11 10
11 11 9 11 9 6 9 9 9 9 13 14 15 14 21 24 24 22 20 17 14 13 17 16 15 16 16 17 16 15 14 12 11 10 11 12 13 12 12 12 13 12 11 12 14 13 14 17 16 13 12 11 13 13 12 12 13 12 10 11 13 10 11 10 11 9 10 9 10 11 11 11 11 12 11 10 11 11 10 9 9 9 10 13 12 10 7 7 7 6 7 9 9 11 15 14 15
9 12 10 11 11 13 11 14 6 11 16 8 5 18 21 23 21 21 17 17 19 22 20 18 17 16 16 18 16 14 12 10 13 12 13 14 14 14 12 13 14 15 12 13 14 15 14 15 15 15 12 11 10 9 12 10 7 12 14 13 14 11 10 11 11 10 10 10 11 12 12 11 12 11 11 10 9 9 9 10 10 9 9 11 11 8 8 9 9 11 6 9 10 13 13 13 16
5 10 11 10 13 7 6 7 5 5 10 7 12 17 17 18 19 17 19 23 24 22 20 19 21 20 18 19 16 16 15 16 15 12 12 14 15 14 11 12 12 13 14 13 13 15 15 14 13 14 13 12 10 11 12 13 12 13 15 14 14 14 9 8 11 10 10 12 13 12 11 11 11 12 10 10 11 10 10 10 9 9 9 8 11 12 10 11 9 9 10 9 9 9 11 13 14
10 6 8 17 9 17 19 5 7 9 16 14 11 15 15 9 8 12 13 15 8 8 10 11 14 20 22 24 21 21 19 20 21 17 15 16 14 15 13 13 12 12 14 13 14 15 13 13 13 13 13 11 11 10 11 11 13 13 12 13 10 11 13 11 12 10 11 13 14 12 12 11 11 12 11 11 11 11 10 10 9 10 11 9 10 11 11 11 11 12 12 11 7 12 13 16 15
15 9 7 7 6 7 11 10 7 5 12 16 15 14 12 11 18 15 11 8 9 13 11 10 12 11 10 9 14 17 20 19 20 18 17 16 17 16 15 12 12 14 14 14 14 13 13 13 12 14 13 14 12 12 13 15 17 14 15 14 14 15 10 10 11 12 10 11 12 12 12 10 11 11 10 10 10 10 9 9 10 10 11 10 10 11 11 10 9 9 11 13 12 10 12 13 17
16 8 12 7 3 3 3 6 12 10 7 9 24 16 17 13 16 17 14 16 16 15 16 17 16 14 14 17 17 15 15 13 17 15 16 17 16 15 13 14 15 13 14 12 12 12 12 12 13 12 11 12 14 13 15 16 17 19 18 18 15 13 13 9 9 10 9 11 10 7 11 11 11 12 10 10 9 9 10 9 10 12 11 10 10 10 9 11 12 13 12 10 12 10 13 13 17
16 20 14 10 6 3 5 9 10 12 22 18 5 18 20 7 20 20 16 16 17 13 18 19 18 17 17 17 17 18 18 17 15 13 16 18 16 15 14 15 14 14 12 11 12 12 12 13 13 13 14 13 13 14 15 14 14 14 14 14 15 15 15 8 9 10 12 10 10 11 10 10 11 11 10 10 9 8 9 10 10 11 10 10 9 11 13 11 11 11 11 13 11 10 10 18 12
28 6 16 12 7 5 6 8 9 8 5 10 4 11 17 16 22 20 17 21 21 18 18 20 20 19 19 17 18 18 19 16 18 17 17 17 16 17 16 16 14 14 12 13 12 12 13 13 12 12 12 13 12 14 14 14 17 13 12 10 11 12 11 14 12 12 10 11 12 10 10 10 10 10 10 10 8 8 9 10 9 10 11 9 10 11 11 9 12 12 13 13 15 15 14 17 15
15 6 16 13 14 9 4 6 6 6 14 9 11 3 15 20 12 15 18 25 24 26 25 26 24 23 22 20 20 19 18 18 17 20 21 20 19 17 16 16 12 13 14 14 13 12 12 12 11 11 11 12 12 14 14 12 13 13 13 14 13 10 14 13 13 12 12 11 13 9 10 9 10 11 10 9 9 9 8 8 8 9 10 10 10 11 11 12 12 13 15 17 17 17 16 14 18
6 14 11 10 8 9 9 7 9 6 10 15 20 16 27 15 8 19 17 24 28 30 31 30 27 24 23 23 20 20 19 17 16 18 17 17 17 16 14 13 13 13 12 12 12 12 11 12 12 13 11 12 13 13 13 11 10 12 13 12 16 14 13 12 10 13 12 10 13 10 8 9 9 11 9 9 10 8 8 8 9 10 10 11 11 11 11 13 13 14 14 15 16 17 15 17 18
7 13 14 6 6 4 4 8 9 8 14 22 19 17 18 22 17 26 28 34 35 34 28 23 21 22 23 23 22 23 22 20 18 18 18 17 16 16 15 16 14 13 13 14 13 12 11 12 13 13 13 13 14 14 13 12 11 11 13 14 15 16 14 15 14 12 12 11 12 10 9 9 9 9 8 9 9 8 9 8 9 10 10 11 11 11 11 12 13 14 15 16 17 17 17 18 18
15 16 14 13 6 6 7 4 4 16 22 17 13 21 9 26 11 18 27 27 34 31 28 30 29 30 30 25 24 22 20 19 17 20 20 18 20 17 17 16 16 15 15 15 14 13 13 12 13 13 12 14 13 13 13 13 13 12 11 14 16 16 16 15 16 15 12 13 11 11 9 10 9 8 8 9 9 8 9 10 9 10 12 11 12 10 11 12 13 14 15 16 16 15 15 17 16
14 11 13 23 14 16 15 9 14 19 34 10 14 16 9 25 14 25 34 35 24 26 30 33 34 31 27 24 24 22 20 19 21 22 21 19 22 21 18 18 17 16 17 16 16 15 14 13 14 15 13 13 14 14 14 13 12 12 14 14 14 14 14 14 14 14 12 13 12 11 10 10 8 10 8 10 7 8 8 11 11 11 11 10 10 12 11 13 14 15 16 15 16 15 15 16 17
19 22 21 26 21 19 18 16 15 16 15 7 13 18 24 9 16 16 31 38 35 30 31 21 25 28 27 24 22 21 21 20 21 22 22 20 22 20 23 19 17 17 17 18 16 16 14 14 13 15 13 12 13 13 14 14 13 12 12 13 13 13 13 14 14 15 11 11 11 11 10 10 10 8 9 8 6 8 10 9 10 10 9 9 11 12 13 13 14 16 15 16 15 14 16 15 16
28 12 25 19 21 34 30 28 35 25 16 8 4 18 21 12 14 12 28 34 28 14 5 8 12 12 13 15 18 18 18 19 21 22 24 21 23 22 22 20 17 18 19 18 15 15 16 15 14 15 13 10 13 13 13 13 12 12 11 12 13 12 14 14 13 12 13 13 10 11 10 9 11 8 10 7 7 10 10 10 9 10 10 10 11 12 13 14 14 15 15 15 15 14 15 16 15
13 13 12 14 27 14 19 17 14 13 13 10 12 23 13 20 6 7 9 11 17 15 12 15 17 16 18 19 22 23 22 23 21 22 24 21 19 22 21 19 17 18 19 17 16 16 17 15 14 15 15 12 12 13 12 13 12 12 12 13 13 14 14 13 12 10 10 10 11 12 11 10 10 10 8 9 8 9 10 11 11 10 9 10 11 12 13 14 13 15 14 15 15 12 16 15 13
22 23 33 28 11 12 10 4 3 6 8 20 12 13 13 15 11 8 7 16 15 18 15 19 19 20 22 23 22 22 23 23 22 23 25 24 21 19 21 19 18 19 18 19 17 16 18 17 16 15 13 12 12 12 13 12 13 13 12 13 14 14 15 14 14 12 12 11 11 12 13 11 10 10 10 8 10 9 10 10 11 10 10 10 11 11 12 13 13 14 15 15 15 12 14 13 13
21 30 22 8 8 12 12 17 7 9 15 19 8 17 7 9 24 9 6 15 12 18 18 20 21 22 25 24 24 25 24 23 21 20 21 24 22 21 21 19 17 19 18 17 17 13 17 18 18 19 16 16 12 13 13 13 14 13 14 14 13 14 14 14 14 14 13 14 12 12 12 13 10 9 10 9 10 11 10 10 11 10 9 10 11 11 12 13 13 14 14 14 13 13 13 11 10
29 29 12 32 21 20 10 12 10 11 15 13 8 5 11 18 16 8 9 18 17 16 16 18 21 24 27 24 22 22 21 21 21 21 25 28 25 22 22 21 17 19 19 18 16 15 15 14 17 20 18 16 15 13 13 12 12 13 12 14 15 14 14 14 13 14 13 14 14 12 13 13 10 9 11 10 11 11 10 9 9 10 10 11 10 11 12 12 13 14 13 13 11 12 12 11 8
5 14 21 12 12 17 15 25 11 15 10 7 10 3 20 17 18 20 24 24 25 22 20 25 28 30 28 26 25 26 27 25 24 20 22 27 27 23 23 23 21 20 20 19 18 16 17 17 17 14 15 16 14 14 14 14 12 14 13 13 11 13 14 15 15 16 15 14 13 14 14 12 10 10 10 9 10 10 9 10 9 10 11 10 11 10 11 12 13 12 12 13 10 12 11 10 9
23 21 21 22 24 7 15 9 15 12 15 12 14 13 19 19 18 19 23 27 27 30 31 28 27 27 25 25 27 25 26 26 24 21 20 23 24 23 22 21 21 18 18 18 17 19 18 17 17 19 22 16 15 14 14 13 14 14 15 14 14 13 13 13 13 13 15 13 13 13 12 12 10 10 10 11 10 9 8 9 9 10 10 11 11 10 9 11 12 11 11 11 10 11 11 8 9
20 24 19 18 25 16 26 24 11 14 14 12 12 17 17 23 10 21 24 25 27 29 32 29 26 25 26 26 24 25 26 23 23 20 19 22 22 22 22 22 20 20 20 19 17 18 18 18 19 19 18 18 16 15 15 15 13 14 14 14 13 12 13 13 14 14 15 14 14 14 13 11 12 8 9 11 10 8 8 9 10 10 10 10 9 9 9 11 12 12 10 9 11 10 9 8 8
Wind_Speed
12 10 5 2 3 4 3 4 2 4 5 1 2 2 2 1 1 4 5 6 3 1 1 2 3 3 1 2 2 6 3 2 2 6 3 1 3 4 6 10 11 11 11 8 6 8 9 13 16 15 15 15 15 16 15 16 15 15 14 14 14 14 13 13 13 13 13 12 13 13 12 12 12 11 10 10 10 10 10 10 10 11 13 13 13 13 13 13 12 11 11 11 12 13 13 13 12
9 10 7 2 4 2 1 1 5 3 6 4 1 1 1 1 3 2 6 1 2 2 1 5 4 7 9 7 8 4 5 4 4 3 1 3 5 4 7 10 11 13 10 7 6 7 8 11 17 16 15 15 15 15 15 15 15 15 15 14 13 13 14 13 13 13 13 12 12 13 12 12 12 11 10 10 9 9 10 8 9 10 12 12 12 12 12 12 12 11 11 13 13 12 12 12 11
9 9 8 1 2 4 0 4 4 1 3 1 3 3 1 2 2 1 3 1 4 4 2 3 3 4 3 4 1 4 0 2 4 2 3 5 8 3 7 8 9 11 9 5 6 7 7 10 17 16 16 15 15 16 15 15 15 15 15 14 14 14 13 13 13 13 12 12 12 13 12 12 12 11 10 10 10 9 8 7 8 10 12 13 12 12 12 12 11 11 11 12 11 11 11 10 10
7 3 3 4 3 4 2 4 3 1 1 3 2 4 1 3 1 2 3 1 4 3 1 2 3 2 2 3 1 2 2 1 1 4 4 6 2 6 7 9 9 7 6 6 7 6 6 13 18 17 17 16 15 15 15 15 15 16 15 14 14 14 14 13 13 13 12 12 12 12 12 12 11 11 10 9 9 8 8 8 10 11 13 12 12 12 11 11 11 11 11 11 11 10 10 10 9
7 4 1 4 2 3 2 1 1 2 2 3 1 3 2 4 4 3 1 3 5 2 3 1 3 4 2 3 0 1 1 1 2 3 4 2 5 6 8 9 8 7 7 7 7 6 6 17 15 15 16 16 15 16 15 15 15 15 15 15 15 14 14 13 13 12 12 12 12 12 12 11 11 11 10 9 9 9 10 9 10 11 11 11 11 10 10 10 10 9 10 10 10 9 8 8 7
5 2 3 1 2 2 4 1 2 3 6 3 1 2 3 5 2 1 2 1 1 2 2 3 2 1 3 3 1 2 1 1 2 2 6 3 9 8 8 7 7 6 5 6 6 4 6 16 16 15 15 16 16 15 15 15 15 15 14 15 14 14 14 13 13 13 12 12 12 12 11 11 11 11 10 9 9 9 8 9 9 9 10 10 10 10 10 11 9 10 10 9 9 8 7 7 6
3 3 5 3 2 3 3 1 2 4 8 5 2 2 4 3 2 1 2 3 1 2 1 1 4 4 4 0 2 2 6 0 3 2 4 7 9 8 7 6 6 6 6 6 3 3 8 14 14 14 14 16 16 15 15 15 14 15 14 14 14 14 14 14 13 13 12 12 11 11 11 10 10 10 9 8 8 8 8 8 8 8 9 9 10 10 10 10 10 10 9 9 9 8 7 6 6
1 1 1 2 1 2 1 0 4 2 4 3 2 2 5 2 3 1 1 3 3 1 0 4 5 5 1 3 2 4 8 3 5 9 10 8 9 8 7 6 7 7 7 4 2 3 11 13 13 14 14 14 15 15 15 14 14 14 14 14 14 14 13 13 13 12 11 11 11 10 10 10 10 9 8 7 6 6 6 6 7 7 8 8 9 9 10 10 11 10 10 9 8 7 7 6 5
4 6 1 3 1 3 2 2 4 2 7 5 7 5 5 1 3 2 1 0 3 1 2 5 4 4 2 4 3 4 3 2 8 11 10 10 10 8 6 7 8 8 8 4 3 3 6 12 11 12 13 14 15 15 14 14 13 13 14 13 13 13 13 13 12 11 10 10 10 10 10 9 9 10 9 7 6 6 6 5 5 7 7 7 8 9 9 10 10 10 9 9 8 7 6 5 5
2 1 2 1 4 1 1 4 1 4 4 4 4 10 2 0 1 1 2 2 5 2 3 4 3 4 7 6 2 2 0 4 10 10 8 8 9 8 7 6 6 8 7 6 3 4 5 13 11 11 12 14 13 14 14 13 13 13 13 13 12 12 12 12 11 10 10 9 10 10 10 10 10 10 9 7 6 6 5 5 6 5 6 7 7 8 8 8 9 9 9 9 8 8 7 6 6
0 5 2 3 1 3 4 6 4 5 4 3 8 7 6 5 4 0 2 2 2 2 1 2 5 7 5 3 0 2 3 5 9 12 9 9 8 8 7 6 6 6 5 5 5 5 5 8 15 12 11 12 12 12 12 11 11 11 12 11 11 12 11 11 10 10 10 9 9 9 10 10 10 10 9 8 6 6 6 5 5 5 5 6 6 7 7 7 8 8 9 9 8 8 7 7 7
0 1 1 3 4 7 6 4 3 7 6 4 4 7 2 2 5 1 4 0 1 1 4 2 6 4 6 2 1 5 6 5 4 7 9 9 8 7 6 5 6 5 4 3 5 3 5 6 6 12 13 12 11 12 12 13 14 13 12 12 11 11 11 10 10 9 9 9 9 9 9 9 9 9 9 8 7 7 6 5 5 4 5 5 5 6 6 7 7 8 8 8 8 8 8 7 7
3 2 5 3 4 3 2 1 4 1 2 4 5 3 2 5 5 3 2 1 3 8 1 1 12 1 4 3 2 5 7 5 5 7 9 8 8 7 6 6 5 5 5 4 2 4 4 4 5 5 9 13 12 13 13 14 13 13 12 12 11 11 10 9 9 8 8 8 8 8 9 9 8 8 8 7 7 7 6 6 5 4 5 5 5 5 6 6 6 7 7 8 8 8 8 8 7
5 6 7 4 2 4 5 3 1 1 4 4 2 4 2 2 1 2 2 5 4 2 1 10 6 9 5 5 3 6 7 5 7 7 7 9 7 7 8 5 6 6 5 3 4 3 3 3 3 4 7 8 7 11 13 14 13 12 12 12 10 10 9 9 8 8 7 6 6 7 7 7 7 8 8 8 7 7 7 6 5 5 5 4 5 5 6 6 6 6 7 8 8 8 8 7 7
3 2 4 3 2 3 3 4 5 4 6 2 3 1 3 2 1 4 4 2 4 0 5 2 6 3 6 10 6 10 10 9 9 9 9 9 8 7 7 7 7 7 6 5 6 7 5 4 4 4 5 5 6 5 5 9 14 13 12 12 11 10 9 9 8 7 6 6 5 5 6 6 7 7 7 7 6 7 6 6 6 5 4 4 4 5 5 6 6 7 7 7 7 6 6 6 6
3 5 3 4 4 6 4 3 0 4 6 3 5 1 4 4 5 3 4 2 4 0 1 3 1 2 3 14 5 14 13 11 10 10 10 10 9 7 8 7 7 7 6 7 7 7 7 6 5 5 5 5 5 5 5 5 11 13 12 11 10 9 9 8 8 7 6 5 5 5 5 4 5 5 7 4 7 7 6 3 5 5 4 4 4 5 6 6 6 6 6 6 6 6 6 6 5
2 4 1 2 5 5 4 4 6 5 4 4 6 2 2 2 2 4 4 5 10 1 2 1 2 1 10 3 8 17 14 12 12 12 11 10 9 9 7 7 7 7 5 6 5 6 7 7 7 5 6 6 6 6 5 5 8 11 9 10 10 9 8 8 7 7 5 4 4 4 4 4 3 3 4 3 5 2 3 4 4 4 4 4 4 4 5 5 5 6 7 7 7 7 7 7 7
2 3 5 5 5 8 6 7 8 3 4 2 3 3 3 2 1 3 5 10 5 4 4 2 7 8 5 4 13 14 14 14 13 14 11 11 9 9 9 9 9 10 9 8 7 7 7 7 9 6 6 7 6 5 4 4 4 7 4 4 4 5 6 6 4 3 5 2 3 3 2 2 3 3 2 3 3 2 2 2 3 3 2 2 2 3 3 4 5 6 7 7 8 7 8 5 5
4 2 5 12 7 6 9 8 9 4 3 4 4 1 3 2 7 4 6 0 1 7 4 2 6 6 9 10 12 14 14 13 13 13 15 14 11 13 11 9 8 9 10 9 8 9 7 6 7 7 7 6 6 5 4 4 5 4 4 4 3 5 4 4 2 3 4 3 2 2 2 2 2 2 1 1 1 3 1 1 1 1 2 3 3 4 4 5 5 6 7 6 7 7 5 5 5
4 7 9 8 6 5 8 5 8 8 6 5 5 2 2 1 2 2 4 6 0 9 7 3 6 7 10 10 12 13 13 13 13 13 15 14 12 12 10 10 9 10 8 7 8 6 6 5 7 6 8 6 5 4 4 4 4 4 4 4 4 4 3 3 2 3 3 3 3 2 1 2 2 2 3 5 6 4 2 3 3 3 4 3 3 3 4 3 5 5 5 6 4 3 4 4 4
2 3 5 6 5 6 8 6 6 8 5 3 4 0 1 1 2 3 10 8 3 5 8 12 14 14 13 13 13 13 13 13 12 13 13 13 11 8 8 8 7 8 7 6 6 7 7 5 5 5 6 5 4 4 4 4 4 4 4 4 4 3 3 2 2 2 3 3 2 1 1 0 1 2 2 2 2 2 1 2 2 2 1 2 3 2 2 2 3 4 4 4 4 4 4 4 4
3 6 3 6 4 5 4 7 8 5 4 3 1 1 4 2 3 7 12 6 6 11 14 11 17 17 17 16 15 12 13 14 14 13 14 14 13 9 6 5 4 6 6 7 9 8 8 5 5 4 5 5 4 3 4 5 5 4 4 4 4 3 3 3 2 1 2 1 1 0 0 0 1 1 2 2 2 2 2 1 1 1 2 2 2 2 2 2 3 3 3 4 3 3 3 3 3
6 2 4 5 5 6 2 3 5 5 2 4 2 3 3 2 2 2 4 6 4 6 5 13 14 19 19 17 17 15 15 15 15 16 13 11 9 8 8 7 7 9 7 7 7 7 7 7 6 5 5 5 5 3 4 4 4 3 4 3 4 3 3 3 2 2 1 0 0 0 0 0 1 1 2 2 2 2 1 1 1 1 1 2 2 2 3 3 3 3 3 3 3 3 3 3 3
3 5 0 6 4 8 5 4 3 3 4 5 2 1 1 4 1 1 2 3 7 6 8 9 7 9 13 15 16 20 19 18 17 13 10 8 10 11 10 9 5 5 6 7 7 6 7 6 6 7 6 6 6 4 5 4 4 4 3 4 3 3 3 2 1 1 1 0 0 1 0 2 2 2 2 2 2 1 1 2 2 1 1 1 1 1 2 3 4 4 3 4 4 3 4 4 4
8 6 3 2 4 5 7 5 3 2 4 2 4 2 3 4 2 3 2 4 5 5 9 9 11 11 12 13 16 14 14 13 11 8 4 3 5 5 4 5 6 5 7 7 6 7 7 6 6 5 5 7 4 4 7 3 3 3 2 2 3 2 2 2 1 1 1 1 2 2 2 3 2 2 2 1 1 2 2 2 2 2 3 2 1 1 1 3 4 3 4 4 4 4 4 5 4
5 5 2 1 1 3 6 5 5 2 0 2 1 2 1 4 5 3 2 3 2 6 8 9 11 13 15 15 15 15 15 13 9 8 7 5 5 6 5 6 6 8 6 6 6 6 6 6 6 6 5 4 4 4 3 3 3 3 2 3 2 1 1 2 2 2 3 3 3 3 4 3 2 2 2 2 3 3 3 2 3 4 3 3 2 3 3 3 3 3 4 4 4 4 4 4 4
2 5 6 2 3 1 2 6 6 3 3 4 4 3 3 1 4 3 0 2 3 8 10 9 11 14 14 12 13 12 12 12 11 6 5 5 6 7 6 6 7 6 5 6 5 5 5 5 5 5 4 5 4 4 2 2 3 3 3 2 1 1 1 3 3 3 4 4 4 4 4 4 3 2 3 3 4 4 4 4 4 4 4 4 3 3 3 4 4 5 4 4 4 4 5 4 5
1 3 1 5 6 5 3 1 4 1 3 8 6 4 2 2 0 4 7 6 7 11 11 12 12 11 12 12 12 10 8 7 6 7 10 9 8 7 7 7 8 7 7 6 6 4 5 5 5 4 4 4 4 3 2 2 3 3 3 3 3 2 2 3 3 3 4 4 4 4 3 3 3 4 5 4 4 4 4 4 4 4 4 4 4 3 4 4 5 5 5 4 5 5 5 5 5
1 5 2 2 4 8 10 10 5 5 4 6 7 3 2 2 3 3 8 8 9 9 10 11 11 11 10 10 9 8 8 7 5 7 7 5 5 5 9 7 8 8 4 5 6 5 6 5 5 4 5 4 4 3 3 2 3 3 3 3 3 3 3 3 4 3 4 4 4 4 3 3 4 5 4 4 4 4 4 4 5 4 4 4 4 4 4 4 5 5 5 4 5 5 6 6 5
1 2 4 1 1 6 15 7 6 5 4 10 8 6 6 7 5 6 10 11 9 10 9 11 9 9 8 9 8 6 5 6 7 5 4 4 5 4 7 6 7 6 6 5 5 5 5 4 4 4 5 5 4 4 4 3 3 3 3 3 4 4 3 4 3 4 5 4 4 4 3 3 4 4 5 5 5 4 4 5 5 5 4 4 4 4 5 5 5 6 5 5 6 6 6 6 6
5 2 3 5 2 7 4 8 10 9 5 10 8 10 5 5 4 9 9 12 16 13 11 10 10 9 9 8 8 7 6 4 4 3 3 4 4 3 4 5 7 6 5 5 6 5 7 6 5 5 5 5 4 4 4 4 3 4 4 4 4 4 4 4 3 4 4 3 3 3 3 4 4 5 5 5 5 5 5 5 5 4 3 3 4 4 5 5 6 6 4 5 5 5 4 4 4
1 5 6 4 10 2 1 7 10 16 1 10 7 8 7 6 8 9 10 10 12 12 11 12 10 10 9 8 8 8 6 3 2 3 3 4 4 4 5 6 6 5 5 5 5 6 7 6 6 6 5 5 4 4 4 5 5 4 4 4 4 4 5 5 4 4 4 3 3 3 3 3 5 5 6 6 6 5 5 5 4 4 4 4 5 5 5 5 4 5 5 4 5 5 4 4 3
1 9 5 10 9 4 1 5 9 13 4 3 14 4 2 0 6 8 9 12 12 10 11 12 12 11 10 9 8 7 7 5 4 3 4 5 4 4 5 5 5 4 5 6 7 7 7 6 7 7 7 7 6 6 6 6 6 6 5 4 4 5 5 4 4 4 4 4 3 4 4 5 6 6 6 6 6 6 5 5 5 5 4 4 5 5 5 4 4 4 5 5 5 4 4 4 4
7 6 12 8 14 5 9 2 1 7 8 5 5 5 5 3 12 9 7 12 13 11 12 14 12 11 11 9 8 8 8 7 7 5 6 5 4 5 5 5 5 6 6 6 7 7 7 6 6 6 6 6 6 7 7 6 6 6 5 5 6 6 5 4 4 4 5 4 4 5 5 6 6 6 6 6 6 5 5 5 5 5 4 4 5 5 5 4 4 4 5 5 5 5 5 5 5
18 11 8 4 5 9 10 6 2 9 7 9 4 4 5 2 8 9 10 10 12 12 12 12 11 11 9 9 9 9 8 8 6 5 6 6 6 5 5 7 7 7 6 7 7 7 7 6 6 7 7 7 7 7 8 7 7 6 6 6 6 6 5 5 5 5 5 5 5 5 6 6 6 6 6 6 6 5 6 5 5 5 4 4 5 5 5 4 4 4 5 4 5 5 4 3 3
8 12 5 2 7 6 10 7 2 13 9 7 10 10 7 6 11 10 7 8 11 10 6 5 7 7 7 7 7 8 8 7 4 6 7 6 5 7 6 6 7 7 7 7 8 8 8 8 7 7 7 7 7 7 7 7 6 6 8 6 7 5 5 6 6 5 5 6 5 5 6 6 6 6 6 6 6 6 5 5 5 4 4 4 5 6 5 4 4 5 5 4 4 4 5 4 4
5 6 3 6 5 1 1 4 3 4 5 9 9 7 10 9 12 13 11 9 9 8 9 10 9 9 9 9 9 8 8 6 6 7 7 8 8 8 7 7 7 8 8 8 8 8 8 9 9 8 7 7 7 7 7 7 7 7 5 6 6 4 5 5 6 5 6 5 6 6 6 6 6 7 6 6 6 6 5 5 5 5 4 5 5 4 3 3 4 3 4 5 5 6 7 6 6
6 8 6 5 5 4 4 7 3 6 6 2 2 8 9 11 11 13 10 11 13 12 12 13 11 10 7 9 9 9 6 5 8 7 8 10 8 9 7 7 9 9 7 8 9 9 9 10 9 9 7 7 6 6 7 6 4 6 7 7 7 5 5 5 6 5 5 5 7 7 7 7 7 6 6 6 5 5 5 5 5 5 4 4 4 3 4 4 4 4 2 5 5 6 5 6 7
3 6 6 5 6 3 2 3 1 3 4 4 3 9 7 6 9 11 11 14 13 13 13 11 10 9 8 9 9 8 8 7 8 7 7 8 10 10 7 7 7 8 8 8 8 10 10 9 8 8 7 7 6 6 7 6 4 5 6 5 7 7 5 4 6 5 5 7 7 6 6 6 6 6 6 6 6 5 5 4 4 4 5 3 4 5 5 6 5 5 4 4 5 5 5 6 8
0 2 4 8 4 8 6 2 2 4 2 5 4 6 2 3 3 4 2 8 1 3 6 7 8 9 8 9 7 7 7 7 10 10 9 9 8 8 7 7 7 7 8 8 9 10 8 7 7 8 7 6 6 6 6 6 7 7 7 7 6 6 6 5 7 6 6 7 7 6 6 6 6 6 6 6 5 5 4 5 5 5 5 4 4 5 5 5 5 5 5 5 4 7 5 7 8
2 3 0 1 3 3 5 4 3 2 6 7 10 5 1 5 7 5 4 3 4 5 4 5 5 6 4 3 6 8 10 9 8 8 10 9 10 8 8 7 7 8 8 8 9 8 7 8 8 8 8 7 6 7 8 8 9 9 8 8 8 9 5 5 6 6 5 6 6 6 5 5 5 6 5 5 5 5 5 5 5 5 4 4 4 5 5 5 5 5 6 6 5 5 6 6 9
3 2 6 4 2 1 1 4 7 3 2 4 8 2 3 5 9 10 7 6 8 6 8 9 9 7 6 8 9 7 7 8 9 9 8 8 9 8 9 9 9 8 8 7 7 7 7 7 8 8 6 7 7 8 9 8 8 10 8 9 8 6 6 5 5 5 4 5 5 4 5 5 5 6 5 5 5 5 5 5 5 5 5 5 4 5 5 6 7 7 6 5 7 5 7 7 7
7 7 9 7 2 2 4 2 4 4 7 7 0 8 4 1 10 11 8 9 11 7 9 9 8 8 9 9 8 9 9 8 8 8 9 10 10 8 9 9 8 9 7 7 7 7 8 8 8 8 7 7 7 8 8 8 8 7 8 7 8 7 8 4 4 5 6 4 5 6 5 5 5 6 6 6 6 5 5 5 5 5 5 5 4 5 6 7 6 6 5 6 5 4 5 9 7
9 2 9 7 5 2 1 4 3 1 1 3 1 2 5 3 10 10 10 10 12 11 9 8 9 10 12 10 10 10 10 10 10 10 11 11 11 10 10 9 8 8 7 7 7 7 8 8 8 8 7 7 7 8 8 8 9 7 6 6 6 7 6 7 6 6 5 5 6 5 4 5 6 6 6 6 5 5 5 5 5 5 6 5 5 6 6 6 6 6 7 7 8 7 8 8 7
4 4 9 7 7 4 3 3 3 2 7 2 4 1 1 5 3 8 10 14 13 14 10 13 14 14 13 13 11 12 12 11 11 10 11 12 12 10 9 9 8 8 8 8 7 7 7 8 7 7 7 7 8 9 9 8 7 7 7 7 7 6 8 7 6 5 6 5 8 5 5 5 5 6 6 5 6 6 4 5 5 6 6 6 5 6 6 7 7 8 8 9 9 9 8 7 8
3 9 5 3 4 3 3 4 5 2 3 7 11 8 7 4 3 9 9 13 15 15 17 18 17 16 14 14 12 12 11 10 10 9 10 10 11 10 9 8 8 8 7 7 7 7 7 7 8 8 7 7 8 8 8 8 7 7 8 7 10 8 7 6 6 6 6 5 7 6 5 5 5 6 5 6 6 6 6 5 6 6 6 6 6 7 7 8 8 9 9 9 9 11 8 9 9
4 8 7 2 3 2 3 4 3 3 4 10 12 11 8 5 6 11 14 14 14 14 14 13 12 13 14 14 13 12 12 11 10 10 10 10 9 9 9 10 8 8 7 8 8 8 7 7 9 9 8 7 9 8 9 8 7 6 8 9 10 11 9 8 8 6 6 5 6 5 5 5 5 5 5 5 6 5 6 5 6 6 6 6 6 7 7 7 7 8 9 11 11 11 9 10 10
10 4 6 7 1 3 2 1 1 3 6 7 5 11 4 9 3 9 11 9 19 18 16 18 18 18 18 15 14 13 13 11 11 10 10 11 11 10 10 10 9 10 9 9 8 8 7 7 8 9 8 9 8 8 8 8 7 6 7 9 10 10 10 8 8 8 6 7 6 6 4 5 5 5 5 5 5 5 5 6 6 6 6 7 7 6 6 7 7 8 8 8 9 9 9 9 9
7 5 8 11 3 2 3 1 2 7 9 2 3 8 2 11 5 9 15 13 13 16 16 18 19 18 17 15 15 12 12 12 11 11 11 11 11 11 12 12 9 10 10 10 10 8 8 7 9 10 9 9 8 9 9 8 8 8 8 9 9 8 8 8 8 7 6 6 5 6 6 6 5 6 5 6 5 5 5 6 6 6 6 6 6 7 7 8 8 9 8 9 9 9 8 9 8
8 9 7 11 5 5 5 5 0 3 4 2 2 9 5 2 4 9 12 18 18 19 20 13 13 13 13 14 13 12 12 12 11 11 12 12 12 11 13 12 10 9 11 10 10 9 8 8 9 10 9 8 8 8 9 9 8 8 8 8 8 7 7 7 6 7 5 6 6 6 6 6 6 5 5 5 4 5 6 5 6 6 6 6 6 7 8 8 8 8 8 9 8 7 8 10 9
12 2 9 7 5 6 8 6 10 8 5 1 1 4 6 6 5 7 17 18 16 9 3 4 6 7 9 10 11 12 12 12 12 12 12 12 14 13 13 12 10 8 11 10 9 9 8 9 9 9 9 7 9 9 8 9 7 8 7 7 7 6 7 7 6 5 7 7 6 6 5 5 6 5 5 4 4 6 6 6 6 7 6 6 7 8 7 8 8 8 7 8 7 7 8 8 8
4 4 5 5 11 6 4 2 1 2 3 4 1 5 4 6 2 4 3 3 2 9 7 7 7 9 11 11 13 14 13 13 12 12 12 11 12 14 12 11 10 9 10 10 10 9 9 9 9 10 10 8 8 9 8 8 7 7 8 9 8 8 6 7 6 5 5 6 6 6 6 5 5 6 5 5 5 6 7 7 6 7 6 7 7 8 8 8 8 8 7 7 8 5 8 9 7
6 7 11 10 5 6 5 2 1 3 4 4 2 4 4 7 6 2 0 2 5 10 10 9 10 12 14 13 13 14 14 14 13 13 12 13 10 12 13 12 10 11 10 10 10 9 10 9 10 10 9 8 8 8 8 8 8 8 8 8 9 9 9 9 8 8 7 6 7 6 6 5 6 5 5 4 6 6 6 6 7 6 6 6 7 7 8 8 8 8 8 8 8 6 7 8 7
5 9 10 4 3 5 3 5 1 1 5 4 2 8 2 3 6 4 2 4 4 6 10 12 12 13 15 14 14 15 15 14 14 13 12 12 11 12 12 12 11 12 12 11 10 8 9 10 12 12 10 10 8 8 8 8 9 9 9 9 8 9 9 9 9 9 7 8 7 6 6 7 6 5 5 5 6 7 6 6 7 6 6 6 7 7 8 8 8 7 7 7 6 7 7 6 5
14 13 5 10 6 8 2 2 1 2 2 2 2 2 3 7 7 2 4 7 7 8 7 7 11 13 15 14 14 14 14 12 13 13 15 15 13 12 13 13 11 11 13 12 10 9 8 8 11 13 12 10 10 7 8 7 7 7 7 8 9 9 8 8 8 8 8 8 8 6 6 7 6 5 6 6 7 6 6 6 6 6 6 7 7 7 7 7 8 7 6 6 6 7 7 7 5
2 8 8 4 4 6 3 5 3 5 2 2 4 0 6 6 6 9 10 13 13 12 10 14 17 18 15 14 14 16 16 14 14 12 13 16 17 14 13 14 13 12 13 12 11 9 10 9 11 9 10 10 9 9 9 9 7 8 8 8 7 8 8 9 9 9 8 8 7 7 7 8 6 5 6 6 6 6 6 6 5 6 7 6 7 6 7 7 7 7 7 7 6 7 7 7 5
5 9 8 3 4 1 4 1 3 2 4 4 3 2 6 7 8 9 13 13 13 16 17 16 16 16 14 14 15 15 16 15 14 13 12 14 15 15 14 12 12 9 10 11 10 11 10 9 10 12 14 10 10 9 9 8 8 8 10 9 9 8 9 8 8 8 9 8 7 6 7 7 6 6 6 6 6 6 6 6 6 6 7 7 7 6 5 6 7 7 6 7 7 7 7 5 5
6 7 7 9 8 5 11 10 2 2 2 2 3 5 7 10 5 11 12 10 13 17 19 17 15 15 14 13 14 15 15 15 14 13 11 13 14 14 14 12 11 11 10 12 10 10 11 10 11 11 11 11 11 9 9 9 8 8 9 9 9 7 8 8 9 8 9 8 7 7 8 7 8 5 5 7 7 5 5 6 7 7 7 7 7 6 6 6 7 7 6 5 6 6 6 5 5
Wind_Direction
325 322 323 233 134 151 94 359 27 323 55 1 351 10 147 10 217 34 4 334 18 303 26 11 57 89 146 206 173 129 21 134 202 132 215 259 101 103 121 126 132 135 140 148 155 145 147 145 141 141 140 139 139 135 133 133 133 130 126 123 120 118 115 113 112 111 111 110 110 110 108 109 109 107 101 93 91 92 95 95 97 97 91 85 82 78 81 90 89 97 113 116 115 110 108 108 108
321 323 310 212 175 122 335 84 104 10 40 38 257 32 198 254 31 66 348 35 225 292 330 98 96 111 89 79 110 138 63 45 215 219 47 96 87 96 131 136 141 140 146 153 147 141 143 146 141 140 139 141 139 136 135 136 133 129 126 124 121 119 118 115 114 113 112 110 111 109 108 106 107 105 100 97 99 96 88 98 105 93 92 87 84 85 84 88 93 98 109 117 117 115 112 111 111
323 335 313 2 31 66 80 43 340 85 82 112 274 214 14 54 67 317 327 239 230 224 206 68 87 44 9 72 18 29 277 196 103 102 109 127 126 191 143 140 140 143 148 149 142 142 141 145 140 142 143 143 141 138 137 136 134 131 129 126 124 121 118 117 115 112 112 112 110 109 108 108 107 105 102 100 99 97 102 107 90 84 84 82 77 78 83 86 94 104 113 116 117 119 118 114 112
323 288 281 12 324 33 46 19 91 119 4 207 280 278 245 118 134 255 307 216 190 182 52 22 57 283 82 26 359 116 68 337 332 148 134 175 212 145 141 140 139 139 141 141 144 142 146 147 144 145 145 144 143 140 140 139 135 132 130 127 125 122 118 115 116 116 114 112 110 108 107 107 105 104 99 98 98 98 101 86 78 77 76 77 74 71 70 82 93 102 111 111 115 115 116 113 114
324 291 71 87 99 9 90 141 145 114 308 203 227 265 245 115 197 245 312 183 192 65 44 100 77 355 96 107 312 102 291 95 158 212 130 92 124 142 140 140 138 139 141 144 142 141 152 145 143 146 146 145 144 143 142 139 135 133 131 129 125 121 118 117 117 117 115 113 111 109 109 107 105 104 102 97 93 89 81 78 71 74 79 76 76 75 74 75 83 92 96 100 103 103 101 111 98
280 332 334 78 57 169 53 34 324 280 221 155 193 248 213 165 170 215 307 152 184 100 103 62 131 192 17 358 54 96 171 286 186 175 144 169 137 143 138 133 130 132 138 134 136 143 154 146 147 147 146 146 146 145 141 139 135 134 131 127 124 123 122 122 120 117 117 116 113 112 111 109 105 103 102 98 94 89 85 78 73 75 72 71 69 69 70 76 78 76 82 87 89 95 95 88 87
311 30 359 23 35 53 159 139 242 244 281 162 231 246 282 127 156 78 324 12 354 175 195 165 120 92 72 189 36 74 317 220 137 175 114 137 127 132 132 127 124 124 129 131 123 148 154 146 146 145 145 147 148 144 142 140 137 135 131 128 128 124 122 120 118 117 116 116 116 115 115 113 111 109 107 101 97 89 79 78 72 68 67 62 60 58 59 64 69 73 79 81 79 80 80 81 78
211 136 320 100 305 39 56 170 265 159 277 165 249 274 289 83 130 95 251 60 303 151 270 152 161 100 248 358 183 342 359 345 100 98 116 127 126 126 125 129 127 129 132 134 142 148 151 145 147 146 146 149 148 145 143 139 137 133 132 132 128 125 125 122 118 120 119 119 118 116 113 111 107 101 99 98 93 91 92 88 80 73 68 62 60 57 54 54 56 60 64 71 76 80 79 76 73
341 86 228 68 78 40 63 222 253 259 287 293 279 227 274 336 188 149 86 226 322 241 170 168 183 129 222 49 38 340 346 40 99 112 123 128 130 130 128 137 143 141 145 144 148 152 133 148 146 147 150 150 149 146 142 139 136 137 136 131 128 127 124 121 119 119 124 125 120 118 115 113 109 100 94 91 90 85 79 79 90 75 66 65 60 56 51 50 52 53 57 60 63 63 60 59 55
30 45 294 127 126 195 18 295 149 237 240 270 292 293 267 77 329 49 95 358 238 331 350 98 67 112 129 95 158 334 27 115 113 112 124 129 128 126 130 132 138 144 147 147 136 126 143 149 152 153 155 153 150 147 143 139 140 141 135 131 129 126 120 116 117 120 121 120 116 113 111 107 104 99 96 92 94 94 90 87 86 75 69 62 60 52 46 45 47 47 48 51 52 49 48 41 33
40 10 131 89 73 174 183 255 256 297 256 309 304 263 254 165 127 334 184 191 271 198 41 102 55 111 98 65 317 339 131 137 134 140 141 130 127 130 125 127 129 140 149 140 133 145 154 152 158 163 159 153 147 142 141 139 141 135 132 127 125 122 120 118 118 118 118 117 116 113 109 105 102 98 94 90 89 90 94 92 85 82 74 64 58 46 36 38 41 41 41 41 44 41 40 36 34
86 88 46 145 177 175 223 202 242 255 291 334 285 292 329 101 160 136 170 107 159 157 181 153 168 153 74 111 245 145 153 165 149 139 133 125 120 118 119 121 130 130 131 133 140 148 150 159 163 165 157 148 144 141 140 141 137 134 131 129 125 123 122 121 117 116 119 121 119 113 109 105 102 98 95 92 87 88 85 87 83 81 73 62 51 39 32 31 33 33 32 33 33 32 30 28 26
135 127 90 116 219 176 188 151 246 255 345 280 244 290 24 355 325 335 135 49 108 129 179 215 146 114 126 175 155 174 178 184 148 137 124 121 119 118 124 133 125 123 132 141 141 141 156 163 175 162 150 148 146 143 143 140 137 134 130 128 128 128 126 122 119 118 123 121 118 112 111 106 104 101 98 94 88 87 85 83 84 74 62 57 47 33 29 28 31 30 27 28 26 24 20 18 12
124 180 138 215 61 149 149 204 341 231 269 249 255 266 1 291 352 94 19 28 358 103 240 132 120 122 95 117 181 192 192 159 141 126 117 114 119 127 133 132 131 136 140 144 143 151 156 157 166 157 155 148 149 145 144 141 139 132 130 133 132 130 128 124 121 119 118 120 116 113 107 105 104 101 97 93 89 85 81 80 76 68 63 55 38 30 25 23 27 26 25 25 23 20 15 8 5
175 160 88 112 152 130 243 164 203 199 248 219 265 303 341 27 349 49 73 99 21 208 109 100 163 120 201 178 205 196 173 158 135 123 116 116 122 128 134 135 139 146 146 147 156 161 156 157 158 151 145 146 140 135 134 142 140 135 135 136 134 130 127 126 121 118 118 122 117 110 106 106 101 97 92 94 92 89 78 72 77 67 61 53 33 30 25 18 20 21 18 18 15 14 7 360 357
145 92 87 150 193 175 245 185 133 178 254 195 258 55 344 46 15 62 315 168 139 44 107 184 264 193 190 181 207 164 153 139 131 122 121 123 127 130 136 140 146 149 153 161 164 160 164 163 160 155 154 149 142 133 135 136 143 140 140 135 131 131 130 125 122 122 126 124 124 112 102 68 61 56 77 65 88 85 87 87 82 81 69 59 43 33 28 22 13 10 6 7 4 2 357 354 351
79 80 146 106 221 165 228 168 157 224 241 250 269 312 250 62 352 71 22 62 125 177 44 315 274 322 178 206 133 134 136 130 125 128 129 137 142 145 146 153 154 157 161 169 169 169 167 165 162 159 161 149 144 139 135 134 148 146 144 136 134 133 128 125 127 129 124 122 105 111 76 76 72 62 46 30 56 83 100 91 100 96 84 77 58 45 33 18 10 2 1 354 355 354 349 354 345
85 178 145 207 181 177 191 185 189 203 178 227 255 221 185 73 99 153 76 37 71 61 48 339 25 32 72 95 117 124 128 133 140 141 151 153 159 152 162 170 167 167 167 163 176 178 170 170 169 165 157 154 150 142 131 137 140 138 118 124 126 129 128 125 110 114 116 41 80 79 66 64 73 79 76 54 57 58 42 81 85 99 98 94 70 50 28 10 360 355 353 350 350 349 355 357 346
167 156 167 217 171 218 168 196 192 132 216 207 222 144 136 187 148 198 86 253 117 67 17 8 66 64 89 106 120 128 136 142 151 158 161 164 169 168 173 172 169 163 171 172 173 178 176 167 166 164 162 155 150 141 128 128 121 116 114 112 119 131 134 115 99 110 78 103 69 54 55 27 65 68 61 193 190 153 122 19 73 61 62 55 39 34 24 6 1 353 350 348 351 351 358 349 342
232 136 205 215 202 209 205 188 197 211 188 207 243 280 137 206 168 120 125 151 99 147 145 89 139 144 141 140 138 142 147 155 163 169 170 171 173 175 170 168 171 174 175 174 168 167 168 172 165 163 167 157 149 143 129 120 129 123 125 113 104 90 82 118 112 106 110 122 121 108 60 2 17 42 349 2 19 40 33 19 358 12 20 11 14 43 27 14 13 358 348 349 354 344 345 342 340
237 167 202 202 207 191 229 207 219 217 192 204 209 102 36 244 169 106 135 103 250 256 208 163 176 168 163 159 154 153 159 165 174 180 177 176 179 177 173 166 165 167 171 160 162 169 170 163 164 166 162 155 156 146 141 134 124 128 124 116 106 111 93 104 124 111 125 120 112 132 158 215 16 8 9 14 47 41 49 21 0 355 347 4 6 25 33 22 17 357 346 349 341 338 341 337 341
129 220 150 189 177 212 247 212 222 214 158 188 93 205 244 130 46 135 151 147 204 208 210 213 173 169 159 162 165 163 170 175 180 184 187 182 178 169 152 144 137 163 165 170 174 168 169 174 167 164 154 159 158 155 141 154 141 140 139 136 113 113 117 111 122 168 166 126 107 130 227 57 10 16 11 34 45 43 18 9 3 340 339 339 339 349 17 40 23 352 344 337 344 340 321 309 312
215 263 196 194 186 183 242 209 226 195 214 179 178 224 83 103 99 244 198 188 237 244 215 190 179 173 171 159 157 169 177 184 186 189 188 185 172 166 163 166 167 170 175 173 168 169 163 176 174 159 160 159 156 149 145 161 154 147 144 140 134 132 133 133 149 228 238 80 57 41 137 78 52 74 60 55 47 31 8 353 337 334 325 336 327 332 353 25 35 8 349 345 336 5 358 339 329
228 216 194 221 177 196 236 219 230 212 190 232 174 28 66 139 126 173 216 282 269 256 163 176 173 146 147 161 176 177 181 184 192 188 186 184 174 174 173 167 163 160 169 163 169 166 160 159 158 158 164 166 163 154 168 176 154 140 156 156 122 156 138 148 120 288 10 68 182 228 157 99 97 60 47 45 46 26 347 336 319 316 333 323 321 326 356 17 22 19 2 2 9 17 9 10 8
209 229 207 252 183 213 235 240 257 236 232 276 3 339 260 191 193 107 289 315 311 154 144 151 154 158 164 172 181 186 187 190 181 176 163 163 182 166 134 137 147 163 177 164 168 157 159 156 155 157 156 167 152 155 179 174 142 127 113 96 120 176 118 120 137 132 90 123 121 125 109 94 69 79 74 70 46 29 10 335 333 351 7 351 353 304 48 41 31 21 19 17 16 19 23 12 10
215 221 166 206 183 218 230 257 240 193 306 139 72 358 105 153 130 60 279 332 357 117 126 148 157 165 175 183 189 185 190 188 173 173 172 148 157 162 163 158 157 173 177 164 160 161 152 148 159 164 161 145 140 154 174 153 136 117 100 109 191 162 112 135 131 89 85 95 82 81 73 102 96 90 122 107 75 36 23 351 28 21 360 345 351 13 0 45 44 38 41 38 33 28 33 11 12
186 180 208 196 255 221 274 217 252 176 200 162 133 161 171 248 74 253 223 136 122 124 138 156 169 176 181 186 193 198 190 184 178 150 127 143 160 174 166 154 166 167 155 165 166 163 153 148 158 150 145 159 139 162 142 123 121 114 122 122 114 110 103 102 91 99 78 72 74 79 76 84 110 94 71 63 67 58 35 20 31 3 15 14 11 20 11 50 67 63 45 39 35 37 38 16 21
110 167 154 225 244 249 250 268 251 110 251 179 140 187 222 284 82 216 174 155 152 144 158 166 179 184 188 193 196 195 191 182 161 160 171 163 173 174 167 169 168 161 164 169 171 158 146 155 153 148 145 146 151 133 123 115 112 119 116 97 94 94 107 87 89 82 82 75 73 74 84 77 88 67 64 59 68 60 44 31 27 28 25 11 27 32 41 37 55 53 45 43 48 47 44 33 18
254 148 189 270 221 251 240 230 229 161 249 167 147 80 214 222 205 205 150 151 148 153 164 176 185 188 192 197 199 196 194 177 164 180 180 159 163 171 172 173 166 165 158 163 168 155 147 145 143 144 136 135 134 127 113 96 94 95 101 99 101 100 91 92 82 86 82 76 75 80 84 82 68 76 65 61 64 65 60 49 51 42 20 18 22 38 55 48 52 51 44 38 49 41 40 24 11
80 74 131 359 231 252 236 229 227 174 229 149 132 228 235 219 243 165 148 149 145 152 172 184 190 191 198 200 204 200 187 188 190 181 160 149 154 170 174 167 165 164 161 161 156 154 128 115 120 122 132 132 135 119 111 101 91 91 81 77 80 83 84 98 93 75 77 70 78 82 83 84 79 70 76 69 70 69 64 66 65 47 19 14 28 25 49 36 48 46 33 46 42 43 40 23 16
177 240 134 195 149 252 213 189 204 209 172 162 161 229 282 249 227 165 160 159 159 171 180 186 189 194 198 203 203 205 204 211 189 149 130 126 130 145 157 154 163 165 162 153 163 146 118 117 123 120 128 129 124 117 109 104 95 83 82 76 76 77 88 89 90 82 76 69 79 68 74 85 79 75 70 82 79 79 75 67 58 45 29 25 48 29 53 46 53 50 32 55 56 48 47 36 25
168 123 219 225 206 242 187 199 172 203 218 172 148 243 226 223 199 165 166 168 169 172 178 186 190 196 198 201 206 206 204 169 170 131 128 134 129 148 159 168 171 174 159 145 125 117 111 117 121 120 121 121 112 111 103 97 89 85 85 96 74 75 84 82 80 85 87 79 72 70 59 76 77 74 72 77 83 72 74 69 54 45 36 46 44 35 43 44 51 62 41 54 71 43 39 32 17
324 192 221 203 210 211 340 232 194 195 108 212 182 211 97 230 200 175 171 172 177 174 179 187 193 197 200 204 204 206 196 191 176 145 138 134 128 142 157 165 171 141 125 128 126 116 116 123 127 129 132 128 116 103 101 98 94 86 76 73 78 78 81 78 77 86 81 72 58 65 63 71 73 73 71 71 80 73 71 68 46 38 34 52 50 42 49 27 38 74 54 45 66 79 45 18 6
236 213 215 200 201 158 216 312 154 181 151 194 224 137 212 203 180 177 185 178 178 185 184 193 193 197 201 203 204 203 208 199 194 157 137 130 135 135 142 144 132 124 123 122 126 126 125 123 122 124 120 115 114 115 113 105 100 96 85 76 82 78 73 72 72 70 64 55 55 57 62 72 69 70 69 72 80 80 72 69 54 39 33 46 52 45 35 23 36 56 77 49 47 60 39 22 347
202 195 211 228 206 184 204 149 238 146 197 170 169 173 210 189 172 181 189 180 186 193 185 187 189 195 199 202 206 207 208 208 183 136 134 136 125 124 126 125 122 118 122 123 119 119 117 114 114 120 120 119 117 118 112 105 103 95 88 88 79 74 68 62 62 65 57 57 53 52 55 60 61 58 61 62 71 65 63 56 53 39 34 38 48 44 26 18 38 44 70 68 58 59 52 12 341
215 191 199 135 154 183 191 201 218 161 183 180 171 187 190 172 181 185 187 182 199 196 170 166 195 204 200 205 204 206 211 206 130 131 134 134 131 132 127 124 117 122 126 124 121 123 119 114 112 114 122 127 125 121 124 113 104 106 108 102 85 75 74 76 61 66 61 62 54 58 59 60 60 62 58 60 67 64 63 56 53 36 35 42 50 43 19 16 15 50 51 65 50 41 33 11 0
127 91 115 166 163 260 224 200 188 163 122 196 191 172 173 181 181 186 185 181 201 184 178 191 199 197 203 205 204 207 209 194 134 137 144 140 136 133 132 126 122 125 127 128 127 131 135 137 136 136 140 139 142 139 135 129 125 123 111 113 110 102 97 87 73 63 65 59 57 59 60 58 58 59 50 55 56 67 58 54 57 45 36 54 59 47 10 18 15 30 67 50 52 48 23 357 6
128 148 156 196 168 195 213 190 183 190 165 273 184 167 187 185 183 187 172 175 197 192 194 199 200 203 200 200 203 204 185 120 145 151 147 140 136 136 131 128 133 133 140 139 142 146 144 146 143 143 143 147 146 133 131 129 154 155 138 131 121 102 91 90 88 66 67 62 56 54 57 56 57 54 55 53 55 56 65 60 52 47 49 60 62 40 38 37 34 32 51 71 34 65 48 1 348
42 143 157 144 215 178 259 198 86 202 176 241 194 171 195 192 182 182 179 185 199 203 201 199 192 196 201 203 203 189 169 164 162 162 147 141 138 138 137 138 145 143 148 147 146 146 148 148 146 146 148 143 133 136 139 137 125 120 122 128 124 104 65 71 83 79 76 74 61 57 57 60 65 58 54 59 62 52 65 71 62 54 45 48 62 42 27 32 20 27 36 114 95 49 68 27 20
230 51 127 182 216 154 227 228 64 13 133 169 163 131 227 204 144 175 191 186 140 185 192 198 198 205 204 205 197 192 175 165 176 165 156 143 139 141 148 154 148 141 146 149 154 152 151 148 148 146 145 134 133 129 117 110 109 93 79 95 88 98 118 100 87 79 73 70 59 55 53 58 65 65 59 66 71 65 68 74 73 60 55 45 64 69 46 40 26 32 36 52 92 84 39 43 29
158 145 139 175 151 213 144 199 101 94 44 114 97 68 127 201 191 201 181 201 206 176 181 202 210 218 209 188 198 197 194 181 171 165 155 149 147 155 163 159 150 153 157 161 158 155 155 154 152 152 147 143 136 132 129 124 113 97 96 90 97 96 84 96 90 68 63 73 75 52 41 58 62 70 67 66 74 71 68 73 77 73 69 51 59 70 63 51 47 41 40 59 48 107 91 71 41
229 216 193 206 184 141 60 110 110 37 22 283 136 70 293 185 217 208 184 193 212 188 196 210 208 204 199 204 207 198 196 186 183 172 156 146 140 148 162 163 162 158 162 162 156 152 150 146 148 147 141 139 140 141 140 136 134 134 134 132 130 124 125 124 112 119 90 69 76 88 64 53 67 71 59 58 63 71 70 66 75 77 70 63 62 68 61 53 41 44 30 54 65 39 106 88 75
201 247 193 217 175 97 110 126 95 156 186 222 300 163 247 220 208 213 199 199 215 195 206 209 202 204 207 212 200 199 194 180 175 167 161 153 147 152 170 172 165 165 164 157 155 153 150 146 152 154 150 145 145 147 149 139 135 145 152 146 138 139 127 81 92 97 105 100 93 80 75 63 55 70 65 62 62 62 71 69 73 75 72 63 55 57 54 49 49 49 47 59 55 65 72 78 57
216 201 178 192 199 231 178 138 113 159 144 98 58 126 161 233 232 205 194 199 212 219 212 212 210 209 212 210 201 197 190 183 181 175 169 161 157 167 173 165 165 169 156 153 152 151 151 148 150 152 152 149 153 153 155 153 147 151 142 133 127 121 121 125 120 109 106 106 91 80 76 65 60 59 68 65 60 65 68 64 64 68 68 58 59 53 59 56 64 56 63 68 69 60 65 79 74
211 192 176 175 181 189 119 106 127 144 114 227 263 254 105 233 269 165 177 209 223 224 215 219 219 214 212 210 203 196 190 185 180 176 174 167 163 168 170 168 165 159 158 157 155 149 142 142 145 150 152 150 153 160 155 155 151 148 141 130 109 101 116 120 120 111 109 105 96 83 75 71 65 55 46 62 61 52 61 66 64 66 66 64 67 65 63 64 69 73 67 63 66 64 63 72 74
232 166 163 156 161 162 128 116 109 128 97 209 212 193 199 278 259 163 182 207 217 220 221 223 217 212 207 206 204 193 187 184 182 175 168 169 163 166 167 159 160 166 152 147 143 139 139 140 152 153 153 151 155 160 154 149 145 138 134 131 125 125 121 112 109 114 110 106 100 94 82 76 68 62 44 44 61 56 62 61 65 68 73 74 70 73 75 71 68 70 70 74 73 74 65 67 73
129 127 120 55 47 97 39 74 108 87 210 229 206 203 184 242 219 184 176 208 201 210 223 224 220 213 208 208 199 192 187 183 181 174 170 165 155 158 161 167 165 153 147 146 146 144 143 152 156 155 154 156 159 157 153 148 141 143 137 137 134 133 130 125 121 114 117 110 106 97 88 75 64 67 61 53 56 56 66 64 70 71 68 73 75 73 74 80 77 77 74 72 69 74 72 73 73
135 161 131 102 15 32 37 354 44 171 251 242 177 193 165 216 276 226 215 198 201 204 208 208 207 204 205 199 194 189 185 183 175 172 172 163 155 163 165 168 165 159 148 152 151 143 152 157 152 144 150 156 156 154 149 141 137 135 135 137 137 139 138 140 137 138 138 125 119 107 97 83 68 67 64 65 52 52 68 65 66 73 73 75 73 79 78 80 80 77 73 73 74 72 74 76 77
168 113 125 154 216 109 227 63 216 206 208 283 159 120 47 246 217 209 205 218 212 210 212 207 203 204 199 193 189 185 183 179 174 175 171 171 169 166 163 169 167 161 157 157 153 151 153 154 154 149 154 155 154 152 149 143 140 143 144 141 140 140 139 137 136 133 138 126 122 114 105 100 89 73 57 74 50 56 69 73 70 76 78 75 85 82 80 80 82 80 79 76 77 73 76 82 82
171 178 153 156 152 169 196 234 188 317 279 301 159 153 208 268 278 212 203 215 214 207 212 211 207 206 192 185 179 178 182 179 174 173 176 176 173 176 169 170 171 162 156 157 154 151 155 156 156 153 150 150 148 148 146 146 146 145 143 141 138 137 132 131 132 132 126 117 118 114 114 114 102 100 91 76 69 76 68 70 80 78 79 87 87 87 85 83 83 84 82 82 80 83 85 85 85
186 100 167 170 158 172 193 182 191 207 193 303 297 105 231 160 243 198 198 212 224 211 179 168 178 172 173 169 172 175 177 182 177 175 177 174 173 175 172 170 169 161 157 155 154 150 156 157 153 144 137 144 145 145 144 142 139 137 132 125 127 128 128 124 122 122 123 119 111 109 103 103 106 102 93 85 73 81 78 76 74 78 77 81 86 87 85 85 86 85 84 86 84 88 88 87 86
200 158 79 124 216 137 164 201 65 138 111 57 181 201 188 175 247 280 295 325 132 162 171 149 157 153 156 169 178 182 182 180 179 177 175 173 173 170 168 166 167 159 160 152 150 154 161 157 148 145 142 142 141 138 138 135 131 128 126 127 126 123 115 115 112 104 105 110 113 112 107 100 104 105 85 86 65 79 82 80 72 73 79 83 86 93 95 95 94 94 90 89 89 88 93 88 88
196 146 204 208 121 96 79 49 30 104 72 232 186 298 297 305 317 307 358 129 191 172 173 165 165 165 167 178 180 180 181 180 180 178 176 172 171 167 167 164 164 161 162 155 155 164 159 148 141 133 132 131 132 132 129 129 128 126 125 126 129 127 129 130 128 122 116 107 107 107 107 108 103 96 98 86 86 74 76 83 82 76 76 84 88 92 97 98 96 94 95 96 93 87 89 91 88
117 188 207 69 93 97 132 201 357 79 158 245 107 210 254 114 248 341 25 140 189 184 183 183 171 165 174 182 179 179 180 180 177 178 175 171 171 167 164 162 165 165 159 152 158 161 156 151 141 136 139 133 132 129 129 131 130 126 128 128 127 129 128 125 125 124 120 115 110 110 115 108 102 104 100 92 87 82 74 78 86 81 81 83 91 93 98 100 99 94 95 91 98 99 93 86 82
178 195 133 153 200 226 299 100 178 125 184 239 289 257 267 194 230 341 252 192 193 193 173 165 179 181 186 180 178 176 173 170 170 174 177 175 170 170 165 160 159 163 154 152 150 149 147 147 143 142 142 140 139 132 129 120 124 127 129 131 130 126 125 122 121 121 120 121 123 121 112 110 105 101 100 98 93 89 89 79 86 89 85 86 88 96 101 102 104 104 100 100 96 98 97 92 86
353 107 158 173 133 218 119 202 175 116 209 89 288 52 238 214 224 201 217 203 190 175 172 191 192 192 186 180 174 173 175 175 174 174 175 174 170 166 162 155 157 161 152 149 149 149 148 147 135 120 120 126 126 128 131 125 125 124 121 117 116 122 127 131 133 129 126 126 124 122 119 109 111 102 100 98 96 97 96 97 87 94 90 89 92 96 105 108 105 106 113 104 100 99 95 92 85
150 158 175 185 205 239 178 67 135 175 166 178 166 277 276 252 213 195 219 203 188 175 188 198 198 196 188 178 172 171 172 172 173 173 170 167 163 159 158 154 149 150 146 146 152 154 148 144 133 133 134 131 130 132 126 125 125 125 127 129 129 129 129 127 124 122 120 120 122 113 107 114 105 98 108 100 98 97 97 98 97 86 92 97 106 107 112 114 110 110 105 107 103 100 101 102 98
148 152 192 191 153 117 171 227 55 98 110 214 125 239 265 263 195 205 221 206 188 195 190 196 197 191 182 178 173 169 168 172 168 166 164 164 159 155 151 150 146 147 152 152 152 149 148 152 144 139 135 138 132 133 131 127 129 130 130 129 128 128 128 125 120 122 121 122 120 118 121 112 104 93 98 107 100 99 95 98 97 93 90 95 101 113 124 121 118 115 109 109 111 105 107 110 106